Date String (YYYY-MM-DD hh:mm:ss) UTC,Instrument flags,Ambient pressure (hPa),Sample flow (lpm),Bypass flow (lpm),Sample temperature (°C),Ambient temperature (°C),ASC tube jacket temperature (°C),LED temperature (°C),Box temperature (°C),Sample RH (%),Span deviation,Mass concentration (μg/m³),Mass concentration (μg/m³),Mass concentration (μg/m³)
DateTimeUTC,F1_M11,P_M11,Q1_M11,Q2_M11,T1_M11,T2_M11,T3_M11,T4_M11,T5_M11,U1_M11,ZSPAN_M11,X0_M11,X2_M11,X1_M11
2022-08-12 17:00:00,,0832.6,5.00,0.00,29.2,27.7,00.0,37.9,31.1,30.5,0000.0,0008.64,0004.50,0003.84
2022-08-12 17:01:00,,0832.5,5.00,0.00,29.2,27.9,00.0,37.9,31.1,30.6,0000.0,0008.95,0004.50,0003.83
2022-08-12 17:02:00,,0832.5,5.00,0.00,29.2,28.0,00.0,38.0,31.2,31.1,0000.0,0009.41,0004.51,0003.83
2022-08-12 17:03:00,,0832.5,5.00,0.00,29.2,27.5,00.0,37.9,31.0,31.3,0000.0,0009.94,0004.53,0003.84
2022-08-12 17:04:00,,0832.5,5.00,0.00,29.2,27.1,00.0,37.9,31.0,30.8,0000.0,0010.08,0004.56,0003.84
2022-08-12 17:05:00,,0832.5,5.00,0.00,29.2,27.1,00.0,37.9,31.0,31.0,0000.0,0010.26,0004.61,0003.85
2022-08-12 17:06:00,,0832.5,5.00,0.00,29.1,27.2,00.0,37.9,30.8,31.4,0000.0,0010.63,0004.60,0003.85
2022-08-12 17:07:00,,0832.4,5.01,0.00,29.1,27.3,00.0,37.9,30.9,31.2,0000.0,0010.76,0004.61,0003.85
2022-08-12 17:08:00,,0832.4,5.00,0.00,29.1,27.5,00.0,37.9,31.0,31.7,0000.0,0011.07,0004.64,0003.85
2022-08-12 17:09:00,,0832.4,4.99,0.00,29.1,27.7,00.0,37.9,31.0,31.7,0000.0,0011.40,0004.64,0003.84
2022-08-12 17:10:00,,0832.4,5.00,0.00,29.2,27.9,00.0,37.9,31.1,31.5,0000.0,0011.60,0004.68,0003.84
2022-08-12 17:11:00,,0832.5,5.00,0.00,29.2,28.0,00.0,37.9,31.2,31.7,0000.0,0012.05,0004.72,0003.84
2022-08-12 17:12:00,,0832.4,5.00,0.00,29.2,27.9,00.0,37.9,31.1,31.8,0000.0,0011.77,0004.73,0003.85
2022-08-12 17:13:00,,0832.4,4.99,0.00,29.2,27.3,00.0,37.9,31.0,31.6,0000.0,0011.44,0004.76,0003.87
2022-08-12 17:14:00,,0832.3,5.01,0.00,29.2,27.1,00.0,37.9,31.0,31.9,0000.0,0011.39,0004.80,0003.88
2022-08-12 17:15:00,,0832.3,5.00,0.00,29.1,27.1,00.0,37.9,30.9,31.8,0000.0,0012.03,0004.81,0003.89
2022-08-12 17:16:00,,0832.3,5.00,0.00,29.1,27.3,00.0,37.9,30.8,32.0,0000.0,0012.04,0004.79,0003.89
2022-08-12 17:17:00,,0832.3,5.00,0.00,29.1,27.4,00.0,37.9,30.9,31.3,0000.0,0011.61,0004.80,0003.90
2022-08-12 17:18:00,,0832.3,5.00,0.00,29.1,27.6,00.0,37.9,31.0,31.7,0000.0,0011.48,0004.79,0003.90
2022-08-12 17:19:00,,0832.3,4.99,0.00,29.2,27.8,00.0,37.9,31.1,31.3,0000.0,0011.53,0004.77,0003.89
2022-08-12 17:20:00,,0832.3,4.99,0.00,29.2,28.0,00.0,37.9,31.1,30.7,0000.0,0011.41,0004.82,0003.90
2022-08-12 17:21:00,,0832.3,5.00,0.00,29.2,28.1,00.0,37.9,31.2,30.5,0000.0,0011.37,0004.81,0003.91
2022-08-12 17:22:00,,0832.3,5.01,0.00,29.2,27.7,00.0,37.9,31.1,30.7,0000.0,0010.81,0004.80,0003.92
2022-08-12 17:23:00,,0832.3,4.99,0.00,29.2,27.2,00.0,37.9,31.0,30.4,0000.0,0011.00,0004.87,0003.94
2022-08-12 17:24:00,,0832.3,5.00,0.00,29.1,27.1,00.0,37.9,31.0,31.2,0000.0,0011.52,0004.93,0003.96
2022-08-12 17:25:00,,0832.4,5.02,0.00,29.1,27.2,00.0,37.9,30.8,32.1,0000.0,0011.67,0004.92,0003.98
2022-08-12 17:26:00,,0832.3,5.00,0.00,29.1,27.3,00.0,37.9,30.8,31.5,0000.0,0010.90,0004.91,0003.99
2022-08-12 17:27:00,,0832.3,5.00,0.00,29.1,27.5,00.0,37.9,30.9,31.1,0000.0,0011.16,0004.92,0004.01
2022-08-12 17:28:00,,0832.2,4.99,0.00,29.1,27.7,00.0,37.9,31.0,31.3,0000.0,0011.28,0004.94,0004.02
2022-08-12 17:29:00,,0832.2,5.00,0.00,29.2,27.9,00.0,37.9,31.1,31.5,0000.0,0011.59,0004.95,0004.04
2022-08-12 17:30:00,,0832.2,5.01,0.00,29.2,28.0,00.0,37.9,31.2,31.6,0000.0,0011.87,0004.96,0004.06
2022-08-12 17:31:00,,0832.2,5.01,0.00,29.2,27.9,00.0,37.9,31.2,31.7,0000.0,0011.84,0004.94,0004.08
2022-08-12 17:32:00,,0832.1,4.99,0.00,29.2,27.4,00.0,37.9,31.0,31.6,0000.0,0012.33,0004.95,0004.08
2022-08-12 17:33:00,,0832.1,5.00,0.00,29.1,27.0,00.0,37.9,30.9,31.5,0000.0,0012.34,0004.93,0004.08
2022-08-12 17:34:00,,0832.1,5.00,0.00,29.1,27.0,00.0,37.8,30.9,32.1,0000.0,0012.25,0004.91,0004.07
2022-08-12 17:35:00,,0832.1,5.00,0.00,29.1,27.2,00.0,37.8,30.8,31.6,0000.0,0012.18,0004.91,0004.07
2022-08-12 17:36:00,,0832.1,5.00,0.00,29.1,27.3,00.0,37.9,30.9,31.2,0000.0,0012.28,0004.92,0004.06
2022-08-12 17:37:00,,0832.1,5.00,0.00,29.1,27.5,00.0,37.9,30.9,31.4,0000.0,0012.39,0004.94,0004.05
2022-08-12 17:38:00,,0832.1,5.00,0.00,29.1,27.7,00.0,37.9,31.0,31.9,0000.0,0012.02,0004.92,0004.04
2022-08-12 17:39:00,,0832.1,5.00,0.00,29.2,27.9,00.0,37.9,31.1,31.9,0000.0,0012.17,0004.94,0004.03
2022-08-12 17:40:00,,0832.1,5.00,0.00,29.2,27.9,00.0,37.9,31.1,31.8,0000.0,0012.85,0004.96,0004.03
2022-08-12 17:41:00,,0832.1,4.99,0.00,29.2,27.4,00.0,37.9,31.0,31.3,0000.0,0012.25,0004.95,0004.02
2022-08-12 17:42:00,,0832.1,5.01,0.00,29.1,27.1,00.0,37.9,30.9,30.9,0000.0,0013.27,0004.96,0004.02
2022-08-12 17:43:00,,0832.1,5.01,0.00,29.1,27.1,00.0,37.8,30.9,31.3,0000.0,0012.74,0004.93,0004.01
2022-08-12 17:44:00,,0832.1,5.00,0.00,29.0,27.2,00.0,37.8,30.8,31.8,0000.0,0012.96,0004.94,0004.00
2022-08-12 17:45:00,,0832.1,4.99,0.00,29.0,27.3,00.0,37.8,30.8,31.7,0000.0,0013.88,0004.94,0004.00
2022-08-12 17:46:00,,0832.1,5.00,0.00,29.1,27.5,00.0,37.8,30.9,31.6,0000.0,0013.88,0004.88,0003.99
2022-08-12 17:47:00,,0832.1,5.01,0.00,29.1,27.7,00.0,37.8,31.0,31.4,0000.0,0013.22,0004.88,0003.98
2022-08-12 17:48:00,,0832.0,5.00,0.00,29.1,27.9,00.0,37.9,31.1,31.4,0000.0,0013.24,0004.84,0003.98
2022-08-12 17:49:00,,0831.9,5.00,0.00,29.2,28.0,00.0,37.9,31.2,31.2,0000.0,0013.49,0004.88,0003.98
2022-08-12 17:50:00,,0832.0,5.00,0.00,29.2,27.8,00.0,37.9,31.1,31.2,0000.0,0013.33,0004.88,0003.97
2022-08-12 17:51:00,,0832.0,5.00,0.00,29.2,27.3,00.0,37.8,31.0,30.8,0000.0,0012.77,0004.88,0003.96
2022-08-12 17:52:00,,0832.0,5.00,0.00,29.1,27.1,00.0,37.8,31.0,30.9,0000.0,0013.05,0004.90,0003.95
2022-08-12 17:53:00,,0832.0,5.00,0.00,29.1,27.2,00.0,37.8,30.9,30.4,0000.0,0012.15,0004.91,0003.94
2022-08-12 17:54:00,,0832.0,4.99,0.00,29.0,27.3,00.0,37.8,30.8,29.4,0000.0,0012.03,0004.87,0003.91
2022-08-12 17:55:00,,0832.0,5.01,0.00,29.1,27.5,00.0,37.8,30.9,29.7,0000.0,0011.59,0004.84,0003.89
2022-08-12 17:56:00,,0832.0,5.01,0.00,29.1,27.6,00.0,37.8,31.0,29.2,0000.0,0011.04,0004.80,0003.86
2022-08-12 17:57:00,,0832.0,4.99,0.00,29.1,27.8,00.0,37.9,31.0,29.4,0000.0,0010.51,0004.72,0003.84
2022-08-12 17:58:00,,0832.0,5.00,0.00,29.2,28.0,00.0,37.9,31.1,28.8,0000.0,0010.32,0004.64,0003.80
2022-08-12 17:59:00,,0832.0,4.99,0.00,29.2,27.8,00.0,37.9,31.1,28.9,0000.0,0010.39,0004.59,0003.76
